This is the latest recevied weather packets stored in our database for station/object WA0LM. If no packets are shown the sender has not sent any weather packets the latest 10 day(s).
| Time | Temp. | Humidity | Pressure | Rain* | Wind** | Luminosity | Snow |
|---|---|---|---|---|---|---|---|
| 1777923358 | 9.44° C | 56% | 1000.8 hPa | 0 mm | - | 465 W/m² | - |
| 1777923056 | 9.44° C | 52% | 1000.6 hPa | 0 mm | - | 997 W/m² | - |
| 1777922754 | 9.44° C | 53% | 1000.9 hPa | 0 mm | - | 232 W/m² | - |
| 1777922452 | 9.44° C | 53% | 1000.5 hPa | 0 mm | - | 245 W/m² | - |
| 1777922150 | 8.89° C | 52% | 1000.7 hPa | 0 mm | - | 287 W/m² | - |
| 1777921846 | 9.44° C | 57% | 1000.8 hPa | 0 mm | - | 210 W/m² | - |
| 1777921542 | 8.89° C | 52% | 1000.5 hPa | 0 mm | - | 311 W/m² | - |
| 1777921238 | 9.44° C | 55% | 1000.7 hPa | 0 mm | - | 211 W/m² | - |
| 1777920936 | 9.44° C | 57% | 1000.5 hPa | 0 mm | - | 279 W/m² | - |
| 1777920632 | 9.44° C | 58% | 1000.5 hPa | 0 mm | - | 864 W/m² | - |
| 1777920327 | 8.89° C | 55% | 1000.3 hPa | 0 mm | - | 337 W/m² | - |
| 1777920023 | 8.89° C | 55% | 1000.3 hPa | 0 mm | - | 333 W/m² | - |
| 1777919721 | 9.44° C | 55% | 1000.3 hPa | 0 mm | - | 276 W/m² | - |
| 1777919419 | 10° C | 56% | 1000 hPa | 0 mm | - | 374 W/m² | - |
| 1777919115 | 9.44° C | 54% | 1000.1 hPa | 0 mm | - | 734 W/m² | - |
| 1777918812 | 9.44° C | 59% | 999.9 hPa | 0 mm | - | 341 W/m² | - |
| 1777918509 | 8.89° C | 59% | 999.8 hPa | 0 mm | - | 362 W/m² | - |
| 1777918208 | 8.89° C | 58% | 999.8 hPa | 0 mm | - | 375 W/m² | - |
| 1777917906 | 8.89° C | 58% | 999.8 hPa | 0 mm | - | 317 W/m² | - |
| 1777917604 | 8.89° C | 58% | 999.8 hPa | 0 mm | - | 814 W/m² | - |
| 1777917302 | 8.89° C | 58% | 999.6 hPa | 0 mm | - | 277 W/m² | - |
| 1777916998 | 8.89° C | 58% | 999.5 hPa | 0 mm | - | 754 W/m² | - |
| 1777916696 | 8.89° C | 54% | 999.4 hPa | 0 mm | - | 290 W/m² | - |
| 1777916393 | 8.89° C | 56% | 999.4 hPa | 0 mm | - | 319 W/m² | - |
| 1777916089 | 9.44° C | 58% | 999.2 hPa | 0 mm | - | 689 W/m² | - |
* Rain latest hour (hover to see other rain measurements)
** Current wind speed in m/s (hover to see current wind gust speed)